IWG007 LEPP-LEMG

Flight info

Callsign IWG007
Flight time 1h 20m
Altitude 33000
Route NOLSA N10 CJN L27 BLN
Aircraft A20N/M-SDE2E3FGHIJ1RWXY/LB1

Departure

Time 2026-04-20 18:55
Airport Pamplona Airport (LEPP)

Arrival

Time 2026-04-20 20:16
Airport Málaga-Costa del Sol Airport (LEMG)
Time Latitude Longitude Altitude Speed Heading
2026-04-20 18:48 42.76763 -1.64104 1492 ft 0 kts 61°
2026-04-20 18:48 42.76758 -1.64124 1476 ft 2 kts 93°
2026-04-20 18:49 42.76762 -1.64146 1487 ft 2 kts 123°
2026-04-20 18:49 42.76773 -1.64163 1487 ft 2 kts 139°
2026-04-20 18:49 42.76786 -1.64177 1478 ft 2 kts 147°
2026-04-20 18:49 42.76797 -1.64186 1487 ft 1 kts 150°
2026-04-20 18:50 42.76799 -1.64187 1487 ft 0 kts 151°
2026-04-20 18:52 42.76784 -1.64177 1480 ft 5 kts 151°
2026-04-20 18:53 42.76740 -1.64144 1485 ft 9 kts 151°
2026-04-20 18:53 42.76674 -1.64108 1487 ft 11 kts 179°
2026-04-20 18:53 42.76588 -1.64097 1481 ft 13 kts 175°
2026-04-20 18:53 42.76517 -1.64149 1482 ft 9 kts 244°
2026-04-20 18:54 42.76492 -1.64223 1482 ft 10 kts 247°
2026-04-20 18:54 42.76544 -1.64297 1491 ft 20 kts 330°
2026-04-20 18:54 42.76900 -1.64556 1487 ft 94 kts 331°
2026-04-20 18:54 42.77636 -1.65106 1478 ft 149 kts 332°
2026-04-20 18:55 42.78588 -1.65787 2012 ft 152 kts 333°
2026-04-20 18:55 42.79563 -1.66444 2552 ft 159 kts 335°
2026-04-20 18:55 42.80583 -1.67097 3105 ft 164 kts 336°
2026-04-20 18:55 42.81632 -1.67746 3703 ft 167 kts 337°
2026-04-20 18:56 42.82718 -1.68378 4268 ft 173 kts 338°
2026-04-20 18:56 42.83850 -1.69003 4898 ft 181 kts 338°
2026-04-20 18:56 42.85037 -1.69669 5488 ft 191 kts 333°
2026-04-20 18:56 42.86218 -1.70620 6064 ft 202 kts 323°
2026-04-20 18:57 42.87238 -1.71987 6672 ft 210 kts 305°
2026-04-20 18:57 42.87863 -1.73860 7136 ft 227 kts 281°
2026-04-20 18:57 42.87855 -1.76090 7637 ft 246 kts 257°
2026-04-20 18:57 42.87130 -1.78287 8200 ft 264 kts 236°
2026-04-20 18:58 42.85948 -1.80333 8736 ft 281 kts 232°
2026-04-20 18:58 42.84675 -1.82406 9566 ft 288 kts 231°
2026-04-20 18:58 42.83434 -1.84522 10509 ft 279 kts 241°
2026-04-20 18:58 42.82518 -1.86731 11801 ft 264 kts 236°
2026-04-20 18:59 42.81271 -1.88498 12918 ft 260 kts 216°
2026-04-20 18:59 42.79595 -1.89461 13649 ft 269 kts 191°
2026-04-20 18:59 42.77689 -1.89617 14134 ft 284 kts 184°
2026-04-20 18:59 42.75628 -1.89681 14340 ft 307 kts 183°
2026-04-20 19:00 42.73405 -1.89738 14541 ft 330 kts 183°
2026-04-20 19:00 42.71058 -1.89803 14738 ft 351 kts 183°
2026-04-20 19:00 42.68555 -1.89877 15145 ft 364 kts 183°
2026-04-20 19:00 42.66184 -1.89950 15804 ft 366 kts 183°
2026-04-20 19:01 42.63636 -1.90032 16499 ft 370 kts 183°
2026-04-20 19:01 42.61044 -1.90117 17157 ft 374 kts 183°
2026-04-20 19:01 42.58430 -1.90205 17831 ft 378 kts 183°
2026-04-20 19:01 42.55793 -1.90294 18446 ft 381 kts 183°
2026-04-20 19:02 42.53148 -1.90383 19034 ft 384 kts 183°
2026-04-20 19:02 42.50469 -1.90474 19602 ft 388 kts 183°
2026-04-20 19:02 42.47749 -1.90566 20182 ft 391 kts 183°
2026-04-20 19:02 42.45020 -1.90738 20763 ft 393 kts 188°
2026-04-20 19:03 42.42333 -1.91431 21335 ft 393 kts 198°
2026-04-20 19:03 42.39793 -1.92679 21890 ft 394 kts 206°
2026-04-20 19:03 42.37326 -1.94332 22485 ft 397 kts 208°
2026-04-20 19:03 42.34855 -1.95995 23040 ft 399 kts 208°
2026-04-20 19:04 42.32574 -1.97520 23555 ft 402 kts 208°
2026-04-20 19:04 42.30249 -1.99071 24000 ft 403 kts 208°
2026-04-20 19:04 42.27725 -2.00751 24483 ft 405 kts 208°
2026-04-20 19:04 42.25215 -2.02418 24957 ft 408 kts 208°
2026-04-20 19:05 42.22655 -2.04111 25412 ft 410 kts 208°
2026-04-20 19:05 42.20047 -2.05833 25878 ft 412 kts 208°
2026-04-20 19:05 42.17463 -2.07537 26329 ft 414 kts 209°
2026-04-20 19:05 42.14904 -2.09225 26760 ft 416 kts 209°
2026-04-20 19:06 42.12292 -2.10949 27164 ft 419 kts 209°
2026-04-20 19:06 42.09668 -2.12680 27604 ft 420 kts 209°
2026-04-20 19:06 42.07050 -2.14406 27992 ft 423 kts 209°
2026-04-20 19:06 42.04401 -2.16150 28354 ft 424 kts 209°
2026-04-20 19:07 42.01734 -2.17905 28724 ft 427 kts 209°
2026-04-20 19:07 41.99053 -2.19668 29105 ft 428 kts 209°
2026-04-20 19:07 41.96405 -2.21406 29472 ft 430 kts 209°
2026-04-20 19:07 41.93711 -2.23173 29801 ft 432 kts 209°
2026-04-20 19:08 41.91007 -2.24945 30168 ft 433 kts 209°
2026-04-20 19:08 41.85545 -2.28519 30797 ft 436 kts 209°
2026-04-20 19:08 41.82808 -2.30307 31126 ft 438 kts 209°
2026-04-20 19:09 41.80085 -2.32084 31489 ft 437 kts 209°
2026-04-20 19:09 41.77351 -2.33866 31889 ft 436 kts 209°
2026-04-20 19:09 41.74644 -2.35629 32269 ft 436 kts 209°
2026-04-20 19:09 41.71871 -2.37435 32659 ft 434 kts 209°
2026-04-20 19:10 41.69124 -2.39221 32909 ft 433 kts 209°
2026-04-20 19:10 41.64287 -2.42362 32939 ft 432 kts 208°
2026-04-20 19:11 41.58861 -2.45881 32935 ft 432 kts 208°
2026-04-20 19:11 41.53454 -2.49381 32937 ft 432 kts 208°
2026-04-20 19:12 41.48035 -2.52882 32937 ft 433 kts 208°
2026-04-20 19:12 41.42674 -2.56337 32934 ft 432 kts 208°
2026-04-20 19:13 41.37208 -2.59854 32934 ft 432 kts 208°
2026-04-20 19:13 41.31720 -2.62219 32931 ft 438 kts 192°
2026-04-20 19:14 41.25522 -2.62391 32931 ft 445 kts 179°
2026-04-20 19:14 41.19601 -2.61836 32939 ft 444 kts 180°
2026-04-20 19:15 41.13413 -2.61282 32957 ft 445 kts 180°
2026-04-20 19:15 41.07273 -2.60736 32946 ft 445 kts 180°
2026-04-20 19:16 41.01072 -2.60186 32945 ft 445 kts 180°
2026-04-20 19:16 40.94887 -2.59635 32958 ft 446 kts 180°
2026-04-20 19:17 40.88897 -2.59092 32969 ft 446 kts 180°
2026-04-20 19:17 40.82685 -2.58531 32964 ft 446 kts 180°
2026-04-20 19:18 40.76494 -2.57973 32953 ft 446 kts 180°
2026-04-20 19:18 40.70312 -2.57417 32956 ft 447 kts 179°
2026-04-20 19:19 40.64312 -2.56880 32952 ft 447 kts 179°
2026-04-20 19:19 40.58115 -2.56325 32953 ft 447 kts 179°
2026-04-20 19:20 40.51893 -2.55769 32959 ft 447 kts 179°
2026-04-20 19:20 40.45733 -2.55220 32961 ft 446 kts 179°
2026-04-20 19:21 40.39521 -2.54893 32959 ft 443 kts 187°
2026-04-20 19:21 40.33516 -2.56328 32952 ft 436 kts 201°
2026-04-20 19:22 40.28059 -2.59051 32950 ft 434 kts 204°
2026-04-20 19:22 40.22424 -2.61890 32953 ft 434 kts 204°
2026-04-20 19:23 40.16794 -2.64711 32948 ft 434 kts 203°
2026-04-20 19:23 40.11184 -2.67516 32951 ft 433 kts 203°
2026-04-20 19:24 40.05533 -2.70338 32950 ft 433 kts 203°
2026-04-20 19:24 39.99927 -2.73133 32950 ft 432 kts 203°
2026-04-20 19:25 39.94294 -2.75936 32945 ft 432 kts 203°
2026-04-20 19:25 39.88688 -2.78721 32943 ft 432 kts 203°
2026-04-20 19:26 39.83065 -2.81510 32942 ft 432 kts 203°
2026-04-20 19:26 39.77491 -2.84269 32937 ft 431 kts 203°
2026-04-20 19:27 39.71862 -2.87051 32933 ft 431 kts 203°
2026-04-20 19:27 39.66447 -2.89722 32933 ft 431 kts 202°
2026-04-20 19:28 39.61022 -2.92394 32930 ft 431 kts 202°
2026-04-20 19:28 39.55388 -2.95167 32929 ft 432 kts 202°
2026-04-20 19:29 39.49800 -2.97921 32927 ft 432 kts 202°
2026-04-20 19:29 39.44191 -3.00679 32926 ft 432 kts 202°
2026-04-20 19:30 39.38600 -3.03422 32925 ft 432 kts 202°
2026-04-20 19:30 39.32959 -3.06171 32921 ft 432 kts 202°
2026-04-20 19:31 39.27881 -3.08640 32919 ft 432 kts 202°
2026-04-20 19:31 39.22236 -3.11382 32918 ft 433 kts 202°
2026-04-20 19:32 39.17543 -3.13659 32919 ft 433 kts 202°
2026-04-20 19:32 39.10967 -3.16843 32916 ft 434 kts 202°
2026-04-20 19:33 39.06245 -3.19125 32921 ft 434 kts 202°
2026-04-20 19:33 39.00589 -3.21855 32919 ft 435 kts 202°
2026-04-20 19:34 38.94941 -3.24576 32923 ft 435 kts 202°
2026-04-20 19:34 38.89264 -3.27306 32928 ft 436 kts 202°
2026-04-20 19:35 38.83595 -3.30027 32926 ft 436 kts 202°
2026-04-20 19:35 38.77877 -3.32767 32942 ft 437 kts 202°
2026-04-20 19:36 38.72207 -3.35480 32932 ft 437 kts 202°
2026-04-20 19:36 38.66727 -3.38097 32924 ft 438 kts 202°
2026-04-20 19:37 38.61096 -3.40782 32935 ft 438 kts 202°
2026-04-20 19:37 38.55339 -3.43522 32935 ft 438 kts 202°
2026-04-20 19:38 38.49612 -3.46243 32929 ft 438 kts 202°
2026-04-20 19:38 38.43922 -3.48942 32931 ft 438 kts 202°
2026-04-20 19:39 38.38174 -3.51664 32929 ft 438 kts 202°
2026-04-20 19:39 38.32434 -3.54377 32923 ft 438 kts 202°
2026-04-20 19:40 38.26954 -3.56964 32924 ft 439 kts 202°
2026-04-20 19:40 38.21243 -3.59654 32920 ft 439 kts 202°
2026-04-20 19:41 38.15846 -3.63203 32913 ft 436 kts 219°
2026-04-20 19:41 38.11815 -3.68846 32912 ft 434 kts 237°
2026-04-20 19:42 38.08429 -3.75215 32915 ft 434 kts 236°
2026-04-20 19:42 38.05160 -3.81309 32914 ft 435 kts 236°
2026-04-20 19:42 38.03448 -3.84491 32750 ft 435 kts 236°
2026-04-20 19:43 38.02318 -3.86592 32571 ft 435 kts 236°
2026-04-20 19:43 38.00050 -3.90802 32217 ft 435 kts 236°
2026-04-20 19:43 37.98339 -3.93974 31970 ft 435 kts 236°
2026-04-20 19:43 37.96616 -3.97166 31428 ft 438 kts 236°
2026-04-20 19:44 37.94906 -4.00331 30696 ft 440 kts 236°
2026-04-20 19:44 37.93177 -4.03528 30141 ft 436 kts 236°
2026-04-20 19:44 37.91465 -4.06691 29531 ft 431 kts 236°
2026-04-20 19:44 37.89778 -4.09804 28965 ft 425 kts 236°
2026-04-20 19:45 37.88116 -4.12869 28408 ft 419 kts 236°
2026-04-20 19:45 37.86493 -4.15857 27875 ft 413 kts 236°
2026-04-20 19:45 37.84862 -4.18860 27332 ft 408 kts 236°
2026-04-20 19:45 37.83259 -4.21808 26804 ft 404 kts 236°
2026-04-20 19:46 37.81690 -4.24690 26282 ft 399 kts 236°
2026-04-20 19:46 37.80118 -4.27577 25766 ft 395 kts 236°
2026-04-20 19:46 37.78563 -4.30429 25240 ft 392 kts 236°
2026-04-20 19:46 37.77120 -4.33073 24764 ft 388 kts 236°
2026-04-20 19:47 37.75591 -4.35873 24215 ft 386 kts 236°
2026-04-20 19:47 37.74066 -4.38664 23727 ft 383 kts 236°
2026-04-20 19:47 37.72563 -4.41411 23194 ft 380 kts 236°
2026-04-20 19:47 37.71069 -4.44140 22692 ft 375 kts 236°
2026-04-20 19:48 37.69583 -4.46851 22177 ft 371 kts 236°
2026-04-20 19:48 37.68131 -4.49498 21921 ft 360 kts 236°
2026-04-20 19:48 37.66835 -4.51858 21791 ft 348 kts 236°
2026-04-20 19:48 37.65485 -4.54316 21559 ft 339 kts 236°
2026-04-20 19:49 37.64115 -4.56700 21292 ft 332 kts 230°
2026-04-20 19:49 37.62501 -4.58725 21024 ft 329 kts 220°
2026-04-20 19:49 37.60596 -4.60363 20777 ft 333 kts 210°
2026-04-20 19:49 37.58573 -4.61780 20516 ft 333 kts 211°
2026-04-20 19:50 37.56549 -4.63215 20096 ft 334 kts 211°
2026-04-20 19:50 37.54699 -4.64536 19726 ft 332 kts 211°
2026-04-20 19:50 37.52689 -4.65843 19351 ft 330 kts 202°
2026-04-20 19:50 37.50481 -4.66611 18973 ft 329 kts 190°
2026-04-20 19:51 37.48183 -4.66750 18549 ft 330 kts 180°
2026-04-20 19:51 37.45880 -4.66701 18136 ft 328 kts 181°
2026-04-20 19:51 37.43624 -4.66674 17706 ft 326 kts 181°
2026-04-20 19:51 37.41362 -4.66654 17309 ft 323 kts 181°
2026-04-20 19:52 37.39125 -4.66473 16917 ft 321 kts 171°
2026-04-20 19:52 37.37004 -4.65667 16532 ft 321 kts 158°
2026-04-20 19:52 37.35054 -4.64316 16141 ft 320 kts 151°
2026-04-20 19:52 37.33169 -4.62911 15763 ft 317 kts 151°
2026-04-20 19:53 37.31372 -4.61585 15394 ft 316 kts 151°
2026-04-20 19:53 37.29493 -4.60204 15029 ft 313 kts 151°
2026-04-20 19:53 37.27591 -4.58929 14671 ft 309 kts 160°
2026-04-20 19:53 37.25420 -4.58213 14354 ft 337 kts 175°
2026-04-20 19:54 37.23052 -4.58136 14327 ft 343 kts 181°
2026-04-20 19:54 37.20669 -4.58129 14282 ft 339 kts 181°
2026-04-20 19:54 37.18333 -4.58112 14211 ft 329 kts 181°
2026-04-20 19:54 37.16082 -4.58091 14111 ft 318 kts 181°
2026-04-20 19:55 37.13921 -4.58071 13858 ft 312 kts 181°
2026-04-20 19:55 37.11728 -4.58054 13429 ft 310 kts 181°
2026-04-20 19:55 37.09620 -4.58037 13205 ft 302 kts 181°
2026-04-20 19:55 37.07560 -4.58019 13081 ft 290 kts 181°
2026-04-20 19:56 37.06233 -4.58008 12917 ft 286 kts 181°
2026-04-20 19:56 37.03579 -4.57987 12408 ft 284 kts 181°
2026-04-20 19:56 37.01605 -4.57973 12010 ft 283 kts 181°
2026-04-20 19:56 36.99660 -4.57958 11643 ft 282 kts 181°
2026-04-20 19:57 36.97701 -4.57942 11250 ft 281 kts 181°
2026-04-20 19:57 36.95774 -4.58177 10920 ft 274 kts 201°
2026-04-20 19:57 36.94204 -4.59365 10699 ft 261 kts 228°
2026-04-20 19:57 36.93289 -4.61272 10314 ft 257 kts 256°
2026-04-20 19:58 36.93139 -4.63471 9941 ft 254 kts 271°
2026-04-20 19:58 36.93205 -4.65680 9499 ft 253 kts 278°
2026-04-20 19:58 36.93811 -4.67694 9048 ft 253 kts 305°
2026-04-20 19:58 36.95123 -4.69132 8594 ft 255 kts 333°
2026-04-20 19:59 36.96851 -4.69618 8101 ft 258 kts 358°
2026-04-20 19:59 36.98637 -4.69614 7719 ft 255 kts 358°
2026-04-20 19:59 37.00396 -4.69612 7459 ft 247 kts 358°
2026-04-20 19:59 37.02070 -4.69616 7353 ft 234 kts 358°
2026-04-20 20:00 37.03657 -4.69627 7251 ft 222 kts 358°
2026-04-20 20:00 37.05179 -4.69642 7065 ft 215 kts 357°
2026-04-20 20:00 37.06636 -4.69665 7004 ft 214 kts 354°
2026-04-20 20:00 37.08022 -4.70239 7004 ft 207 kts 321°
2026-04-20 20:01 37.08887 -4.71545 6991 ft 185 kts 301°
2026-04-20 20:01 37.09531 -4.72851 6951 ft 168 kts 300°
2026-04-20 20:01 37.10132 -4.74076 6711 ft 167 kts 301°
2026-04-20 20:01 37.10747 -4.75308 6425 ft 167 kts 301°
2026-04-20 20:02 37.11370 -4.76534 6139 ft 167 kts 301°
2026-04-20 20:02 37.11876 -4.77835 5812 ft 166 kts 276°
2026-04-20 20:02 37.11637 -4.79211 5526 ft 165 kts 237°
2026-04-20 20:02 37.10745 -4.80065 5231 ft 168 kts 197°
2026-04-20 20:03 37.09589 -4.80133 5037 ft 163 kts 179°
2026-04-20 20:03 37.08480 -4.80094 4992 ft 162 kts 181°
2026-04-20 20:03 37.07337 -4.80077 4992 ft 162 kts 181°
2026-04-20 20:03 37.06209 -4.80067 4993 ft 161 kts 182°
2026-04-20 20:04 37.05080 -4.80059 4984 ft 163 kts 182°
2026-04-20 20:04 37.03957 -4.80051 4996 ft 162 kts 181°
2026-04-20 20:04 37.02833 -4.80041 4985 ft 161 kts 181°
2026-04-20 20:04 37.01702 -4.80030 4989 ft 162 kts 181°
2026-04-20 20:05 37.00575 -4.80018 5002 ft 162 kts 181°
2026-04-20 20:05 36.99445 -4.80007 4996 ft 162 kts 181°
2026-04-20 20:05 36.98318 -4.79995 4993 ft 162 kts 181°
2026-04-20 20:05 36.97187 -4.79983 5008 ft 162 kts 181°
2026-04-20 20:06 36.96069 -4.79973 5002 ft 162 kts 181°
2026-04-20 20:06 36.94932 -4.79961 4990 ft 162 kts 181°
2026-04-20 20:06 36.93805 -4.79949 5008 ft 163 kts 181°
2026-04-20 20:06 36.92688 -4.79746 5000 ft 163 kts 162°
2026-04-20 20:07 36.91617 -4.79256 4992 ft 164 kts 161°
2026-04-20 20:07 36.90558 -4.78785 5000 ft 163 kts 162°
2026-04-20 20:07 36.89490 -4.78319 4998 ft 162 kts 162°
2026-04-20 20:07 36.88417 -4.77855 5002 ft 162 kts 162°
2026-04-20 20:08 36.87347 -4.77390 5013 ft 156 kts 162°
2026-04-20 20:08 36.86397 -4.76869 4999 ft 147 kts 153°
2026-04-20 20:08 36.85495 -4.76247 5002 ft 148 kts 153°
2026-04-20 20:08 36.84592 -4.75634 4998 ft 149 kts 153°
2026-04-20 20:09 36.83680 -4.75022 4956 ft 150 kts 153°
2026-04-20 20:09 36.82760 -4.74413 4725 ft 147 kts 153°
2026-04-20 20:09 36.81861 -4.73824 4478 ft 145 kts 152°
2026-04-20 20:09 36.81015 -4.73145 4252 ft 144 kts 144°
2026-04-20 20:10 36.80262 -4.72350 4047 ft 142 kts 139°
2026-04-20 20:10 36.79539 -4.71521 3829 ft 141 kts 135°
2026-04-20 20:10 36.78912 -4.70577 3610 ft 140 kts 129°
2026-04-20 20:10 36.78319 -4.69608 3403 ft 140 kts 128°
2026-04-20 20:11 36.77702 -4.68680 3206 ft 138 kts 133°
2026-04-20 20:11 36.77050 -4.67812 3080 ft 138 kts 135°
2026-04-20 20:11 36.76383 -4.66950 2962 ft 136 kts 131°
2026-04-20 20:11 36.75845 -4.65984 2839 ft 139 kts 122°
2026-04-20 20:12 36.75356 -4.64936 2701 ft 138 kts 122°
2026-04-20 20:12 36.74815 -4.63945 2460 ft 137 kts 127°
2026-04-20 20:12 36.74246 -4.62983 2219 ft 137 kts 124°
2026-04-20 20:13 36.73356 -4.60905 1869 ft 137 kts 115°
2026-04-20 20:13 36.72929 -4.59856 1707 ft 137 kts 119°
2026-04-20 20:13 36.72467 -4.58817 1509 ft 136 kts 118°
2026-04-20 20:13 36.72024 -4.57767 1311 ft 136 kts 117°
2026-04-20 20:14 36.71736 -4.57074 1179 ft 136 kts 117°
2026-04-20 20:14 36.71150 -4.55693 894 ft 136 kts 116°
2026-04-20 20:14 36.70735 -4.54649 597 ft 133 kts 117°
2026-04-20 20:14 36.70351 -4.53734 398 ft 131 kts 118°
2026-04-20 20:15 36.69926 -4.52717 309 ft 132 kts 117°
2026-04-20 20:15 36.69645 -4.52039 239 ft 132 kts 118°
2026-04-20 20:15 36.69213 -4.51025 121 ft 132 kts 118°
2026-04-20 20:15 36.68801 -4.50055 50 ft 114 kts 118°
2026-04-20 20:16 36.68563 -4.49503 45 ft 32 kts 118°
2026-04-20 20:16 36.68432 -4.49354 44 ft 20 kts 141°
2026-04-20 20:16 36.68289 -4.49318 39 ft 24 kts 206°
2026-04-20 20:16 36.68166 -4.49442 41 ft 22 kts 221°
2026-04-20 20:17 36.68052 -4.49560 41 ft 19 kts 205°
2026-04-20 20:17 36.67975 -4.49499 41 ft 13 kts 130°
2026-04-20 20:17 36.67913 -4.49478 41 ft 8 kts 209°
2026-04-20 20:17 36.67885 -4.49502 41 ft 0 kts 213°